Regional Weather Roundup
Issued by NWS

Home | Current Version | Previous Version | Text Only | Print | Product List | Glossary Off
Versions: 1 2 3 4 5 6 7 8 9 10 11 12 13 14 15 16 17 18 19 20 21 22 23 24 25 26 27 28 29 30 31 32 33 34 35 36 37 38 39 40 41 42 43 44 45 46 47 48 49 50

344
ASUS43 KMKX 232011
RWRWI

WISCONSIN REGIONAL WEATHER ROUNDUP
NATIONAL WEATHER SERVICE MILWAUKEE/SULLIVAN WI
300 PM CDT SUN APR 23 2017

NOTE: "FAIR" INDICATES FEW OR NO CLOUDS BELOW 12,000 FEET WITH NO
SIGNIFICANT WEATHER AND/OR OBSTRUCTIONS TO VISIBILITY.

WIZ001-002-006>008-014>016-023>028-232100-
NORTHWEST WISCONSIN

CITY           SKY/WX    TMP DP  RH WIND       PRES   REMARKS
SUPERIOR ARPT  CLOUDY    35  30  82 NE15      30.16F WCI  26
ASHLAND        CLOUDY    39  30  70 NE13      30.17F WCI  31
HAYWARD        CLOUDY    45  34  65 NE9       30.10F
SIREN          PTSUNNY   49  35  56 E10       30.07F
CUMBERLAND     MOSUNNY   54  37  54 CALM      30.03F
RICE LAKE      MOSUNNY   57  39  50 N6        30.05F
CHETEK         MOSUNNY   58  42  54 NE3       30.03F
LADYSMITH      MOSUNNY   57  39  51 E3        30.06F
EAU CLAIRE     SUNNY     65  39  38 CALM      30.00F
MENOMONIE      SUNNY     64  40  40 CALM      30.01F
NEW RICHMOND   MOSUNNY   65  38  36 S5        30.01F
OSCEOLA        PTSUNNY   61  43  51 NE9       30.04F
$$

WIZ003>005-009-010-017-018-232100-
NORTH CENTRAL WISCONSIN

CITY           SKY/WX    TMP DP  RH WIND       PRES   REMARKS
MANITOWISH WTR CLOUDY    40  37  89 E10       30.11F WCI  34
ARBOR VITAE    CLOUDY    42  35  76 NE5       30.10F
WOODRUFF       CLOUDY    42  35  76 NE5       30.10F
RHINELANDER    MOSUNNY   49  37  63 E8        30.09F
EAGLE RIVER    CLOUDY    39  31  73 NE6       30.10F WCI  35
LAND O LAKES   CLOUDY    38  33  84 E6        30.14F WCI  33
PHILLIPS       MOSUNNY   49  37  65 E6        30.06F
TOMAHAWK       SUNNY     54  37  52 NE8       30.06F
MEDFORD        HAZE      59  43  54 E7        30.02F VSB 3/4
MERRILL        SUNNY     56  41  57 NE5       30.06F
$$

WIZ029-030-035-036-043>047-232100-
CENTRAL WISCONSIN

CITY           SKY/WX    TMP DP  RH WIND       PRES   REMARKS
WAUSAU         MOSUNNY   62  43  49 E8        30.02F
MOSINEE        PTSUNNY   64  39  39 W12       30.04S
MARSHFIELD     SUNNY     66  38  35 W6        30.01F
STEVENS POINT  SUNNY     65  37  34 NW8       30.03S
WAUPACA        SUNNY     62  43  48 E12       30.06S
WAUTOMA        PTSUNNY   65  45  48 NE17G23   30.03R
WISC RAPIDS    MOSUNNY   71  37  28 VRB5G20   30.02F
CAMP DOUGLAS   MOSUNNY   72  36  26 SW10G16   30.01F
$$

WIZ011>013-019>022-031-037>040-048>050-232100-
NORTHEAST WISCONSIN

CITY           SKY/WX    TMP DP  RH WIND       PRES   REMARKS
ANTIGO         PTSUNNY   53  39  57 E6        30.07F
SHAWANO        SUNNY     57  42  57 E13       30.09S
OCONTO         SUNNY     45  33  63 E13G21    30.13S
STURGEON BAY   PTSUNNY   45  34  65 NE12      30.14S
GREEN BAY      SUNNY     51  40  65 NE21      30.10F
MANITOWOC      SUNNY     45  36  70 NE12      30.12S
APPLETON       MOSUNNY   55  39  54 NE15G21   30.06S
CLINTONVILLE   SUNNY     55  39  54 E13       30.08R
OSHKOSH        SUNNY     55  42  61 E13       30.06S
$$

WIZ032>034-041-042-053>061-232100-
SOUTHWEST WISCONSIN

CITY           SKY/WX    TMP DP  RH WIND       PRES   REMARKS
LA CROSSE      SUNNY     74  36  25 MISG      29.99F
SPARTA         SUNNY     71  35  27 W10G16    30.02F
VIROQUA        SUNNY     70  31  23 W14       30.03F
BOSCOBEL       SUNNY     73  33  23 SW10G16   30.03F
PRAIRIE DU CHI SUNNY     71  31  22 W8        30.03F
PLATTEVILLE    SUNNY     70  33  25 W5G18     30.05S
$$

WIZ056-057-062-063-064-067-068-232100-
SOUTH CENTRAL WISCONSIN

CITY           SKY/WX    TMP DP  RH WIND       PRES   REMARKS
REEDSBURG      SUNNY     70  34  26 SW6       30.02S
BARABOO/DELLS  SUNNY     70  32  24 W5        30.02F
LONE ROCK      SUNNY     72  35  25 W6        30.02F
MINERAL POINT  SUNNY     70  30  23 W6        30.04F
MADISON        MOSUNNY   70  33  25 W8        30.03F
MIDDLETON      SUNNY     72  32  22 CALM      30.03F
WATERTOWN      SUNNY     70  37  29 W9        30.02F
MONROE         SUNNY     70  32  24 W8        30.05S
JANESVILLE     SUNNY     72  30  21 SW7       30.04F
$$

WIZ051-052-058>065-066-070>072-232100-
SOUTHEAST WISCONSIN

CITY           SKY/WX    TMP DP  RH WIND       PRES   REMARKS
MILWAUKEE      MOSUNNY   47  39  74 NE20G31   30.10R
WAUKESHA       SUNNY     54  39  58 E12G25    30.08R
MILWAUKEE/TIMM SUNNY     48  28  46 NE12      30.11R
RACINE         SUNNY     49  40  71 N20       30.09R
KENOSHA        SUNNY     69  33  26 VRB3      30.04F
FOND DU LAC    SUNNY     59  42  53 E12       30.06R
SHEBOYGAN      SUNNY     47  38  71 NE21      30.10F
WEST BEND      SUNNY     52  39  62 E13G18    30.08S
JUNEAU         SUNNY     68  37  31 W5        30.03F
$$

LSZ147-162-232100-
LAKE SUPERIOR

STATION/POSITION TIME  TEMP    WIND        PRES    WAVE
                       AIR SEA DIR/SP/G            HT/PER
                 (UTC) (F)     (DEG/KT/KT) (MB)    (FT/S)
DEVILS ISLAND    2000   33      90/ 16/ 17 1023.5F
PORT WING        1940   35      40/ 19/ 21 1022.0S
SAXON HARBOR     1930   36      50/ 15/ 18 1021.3F
$$

LMZ867-665-643>646-232100-
LAKE MICHIGAN

STATION/POSITION TIME  TEMP    WIND        PRES    WAVE
                       AIR SEA DIR/SP/G            HT/PER
                 (UTC) (F)     (DEG/KT/KT) (MB)    (FT/S)
CHAMBERS ISLAND  1940   37      30/ 12/ 17 1021.0S
N MID LAKE BUOY  1950   37 37   30/ 12/ 16 1022.6F   2/ 4
NORTHPORT PIER   1940   39      10/ 10/ 14 1021.3F
KEWAUNEE LAKESHO 1948   40      50/ 13/ 19 1019.9S
SHEBOYGAN LAKESH 2000   39      30/ 19/ 20 1019.9F
PORT WASHINGTON  1930   43      50/ 21/ 26 1020.3R
MILWAUKEE LAKESH 1950   41      20/ 17/ 21   N/A
KENOSHA   LAKESH 2000   53     170/  9/ 13 1017.3
$$

TC  - TEMPERATURE IN CELSIUS
VSB - VISIBILITY IN STATUTE MILES
WCI - WIND CHILL INDEX
HX  - HEAT INDEX





USA.gov is the U.S. government's official web portal to all federal, state and local government web resources and services.